Time,TemperatureF,DewpointF,PressureIn,WindDirection,WindDirectionDegrees,WindSpeedMPH,WindSpeedGustMPH,Humidity,HourlyPrecipIn,Conditions,Clouds,dailyrainin,SoftwareType,DateUTC
2013-02-10 00:02:00,20.3,19.4,30.14,SE,146,0.0,2.0,96,0.00,,,0.00,HR-IXPWINDi_r2_v1.2.,2013-02-10 06:02:00,
2013-02-10 00:07:00,20.4,19.5,30.14,SSE,150,0.0,4.0,96,0.00,,,0.00,HR-IXPWINDi_r2_v1.2.,2013-02-10 06:07:00,
2013-02-10 00:12:00,20.4,19.5,30.14,SSE,148,2.0,4.0,96,0.00,,,0.00,HR-IXPWINDi_r2_v1.2.,2013-02-10 06:12:00,
2013-02-10 00:17:00,20.4,19.5,30.14,SSE,147,1.0,4.0,96,0.00,,,0.00,HR-IXPWINDi_r2_v1.2.,2013-02-10 06:17:00,
2013-02-10 00:22:00,20.5,19.6,30.14,SSE,147,1.0,4.0,96,0.00,,,0.00,HR-IXPWINDi_r2_v1.2.,2013-02-10 06:22:00,
2013-02-10 00:27:00,20.5,19.6,30.14,SE,146,0.0,4.0,96,0.00,,,0.00,HR-IXPWINDi_r2_v1.2.,2013-02-10 06:27:00,
2013-02-10 00:32:00,20.6,19.7,30.14,SSE,148,0.0,4.0,96,0.00,,,0.00,HR-IXPWINDi_r2_v1.2.,2013-02-10 06:32:00,
2013-02-10 00:37:00,20.6,19.7,30.14,SSE,163,1.0,4.0,96,0.00,,,0.00,HR-IXPWINDi_r2_v1.2.,2013-02-10 06:37:00,
2013-02-10 00:42:00,20.6,19.7,30.13,SSE,155,2.0,4.0,96,0.00,,,0.00,HR-IXPWINDi_r2_v1.2.,2013-02-10 06:42:00,
2013-02-10 00:48:00,20.7,19.8,30.13,SSE,150,0.0,4.0,96,0.00,,,0.00,HR-IXPWINDi_r2_v1.2.,2013-02-10 06:48:00,
2013-02-10 00:53:00,20.7,19.8,30.13,SSE,150,0.0,4.0,96,0.00,,,0.00,HR-IXPWINDi_r2_v1.2.,2013-02-10 06:53:00,
2013-02-10 00:58:00,20.7,19.8,30.13,SE,137,0.0,4.0,96,0.00,,,0.00,HR-IXPWINDi_r2_v1.2.,2013-02-10 06:58:00,
2013-02-10 01:03:00,20.8,19.8,30.13,SE,144,0.0,4.0,96,0.00,,,0.00,HR-IXPWINDi_r2_v1.2.,2013-02-10 07:03:00,
2013-02-10 01:09:00,20.8,19.8,30.13,SE,144,1.0,2.0,96,0.00,,,0.00,HR-IXPWINDi_r2_v1.2.,2013-02-10 07:09:00,
2013-02-10 01:14:00,20.8,19.8,30.13,SE,145,1.0,2.0,96,0.00,,,0.00,HR-IXPWINDi_r2_v1.2.,2013-02-10 07:14:00,
2013-02-10 01:19:00,20.9,19.9,30.13,SSE,155,0.0,4.0,96,0.00,,,0.00,HR-IXPWINDi_r2_v1.2.,2013-02-10 07:19:00,
2013-02-10 01:24:00,20.8,19.8,30.12,SSE,148,1.0,4.0,96,0.00,,,0.00,HR-IXPWINDi_r2_v1.2.,2013-02-10 07:24:00,
2013-02-10 01:29:00,20.9,19.9,30.12,SSE,147,4.0,4.0,96,0.00,,,0.00,HR-IXPWINDi_r2_v1.2.,2013-02-10 07:29:00,
2013-02-10 01:34:00,20.9,19.9,30.12,SE,132,4.0,5.0,96,0.00,,,0.00,HR-IXPWINDi_r2_v1.2.,2013-02-10 07:34:00,
2013-02-10 01:40:00,20.9,19.9,30.12,SE,134,1.0,5.0,96,0.00,,,0.00,HR-IXPWINDi_r2_v1.2.,2013-02-10 07:40:00,
2013-02-10 01:45:00,20.9,19.9,30.12,SE,146,1.0,4.0,96,0.00,,,0.00,HR-IXPWINDi_r2_v1.2.,2013-02-10 07:45:00,
2013-02-10 01:50:00,20.9,19.9,30.12,SE,146,0.0,4.0,96,0.00,,,0.00,HR-IXPWINDi_r2_v1.2.,2013-02-10 07:50:00,
2013-02-10 01:55:00,21.0,20.0,30.12,SE,146,2.0,5.0,96,0.00,,,0.00,HR-IXPWINDi_r2_v1.2.,2013-02-10 07:55:00,
2013-02-10 02:00:00,21.0,20.0,30.12,SSE,159,2.0,5.0,96,0.00,,,0.00,HR-IXPWINDi_r2_v1.2.,2013-02-10 08:00:00,
2013-02-10 02:05:00,21.0,20.0,30.12,SE,144,0.0,5.0,96,0.00,,,0.00,HR-IXPWINDi_r2_v1.2.,2013-02-10 08:05:00,
2013-02-10 02:10:00,21.1,20.1,30.13,SE,144,0.0,5.0,96,0.00,,,0.00,HR-IXPWINDi_r2_v1.2.,2013-02-10 08:10:00,
2013-02-10 02:15:00,21.0,20.0,30.13,SSE,155,0.0,5.0,96,0.00,,,0.00,HR-IXPWINDi_r2_v1.2.,2013-02-10 08:15:00,
2013-02-10 02:21:00,21.1,20.1,30.13,SSE,155,0.0,5.0,96,0.00,,,0.00,HR-IXPWINDi_r2_v1.2.,2013-02-10 08:21:00,
2013-02-10 02:26:00,21.1,20.1,30.13,SSE,152,1.0,4.0,96,0.00,,,0.00,HR-IXPWINDi_r2_v1.2.,2013-02-10 08:26:00,
2013-02-10 02:31:00,21.1,20.1,30.12,SSE,153,0.0,4.0,96,0.00,,,0.00,HR-IXPWINDi_r2_v1.2.,2013-02-10 08:31:00,
2013-02-10 02:36:00,21.1,20.1,30.12,SSE,156,2.0,5.0,96,0.00,,,0.00,HR-IXPWINDi_r2_v1.2.,2013-02-10 08:36:00,
2013-02-10 02:42:00,21.1,20.1,30.12,SSE,159,0.0,5.0,96,0.00,,,0.00,HR-IXPWINDi_r2_v1.2.,2013-02-10 08:42:00,
2013-02-10 02:47:00,21.1,20.1,30.12,SSE,147,1.0,4.0,96,0.00,,,0.00,HR-IXPWINDi_r2_v1.2.,2013-02-10 08:47:00,
2013-02-10 02:52:00,21.1,20.1,30.12,SSE,152,0.0,5.0,96,0.00,,,0.00,HR-IXPWINDi_r2_v1.2.,2013-02-10 08:52:00,
2013-02-10 02:57:00,21.1,20.1,30.13,SSE,153,0.0,5.0,96,0.00,,,0.00,HR-IXPWINDi_r2_v1.2.,2013-02-10 08:57:00,
2013-02-10 03:02:00,21.1,20.1,30.13,SSE,150,0.0,4.0,96,0.00,,,0.00,HR-IXPWINDi_r2_v1.2.,2013-02-10 09:02:00,
2013-02-10 03:07:00,21.1,20.1,30.12,SSE,150,0.0,4.0,96,0.00,,,0.00,HR-IXPWINDi_r2_v1.2.,2013-02-10 09:07:00,
2013-02-10 03:13:00,21.1,20.1,30.12,SSE,150,0.0,4.0,96,0.00,,,0.00,HR-IXPWINDi_r2_v1.2.,2013-02-10 09:13:00,
2013-02-10 03:18:00,21.0,20.0,30.12,SSE,151,2.0,4.0,96,0.00,,,0.00,HR-IXPWINDi_r2_v1.2.,2013-02-10 09:18:00,
2013-02-10 03:22:00,20.9,19.9,30.11,SSE,153,1.0,7.0,96,0.00,,,0.00,HR-IXPWINDi_r2_v1.2.,2013-02-10 09:22:00,
2013-02-10 03:28:00,20.9,19.9,30.11,SSE,152,0.0,7.0,96,0.00,,,0.00,HR-IXPWINDi_r2_v1.2.,2013-02-10 09:28:00,
2013-02-10 03:33:00,20.9,19.9,30.12,SSE,153,0.0,4.0,96,0.00,,,0.00,HR-IXPWINDi_r2_v1.2.,2013-02-10 09:33:00,
2013-02-10 03:38:00,20.8,19.8,30.11,SE,144,5.0,5.0,96,0.00,,,0.00,HR-IXPWINDi_r2_v1.2.,2013-02-10 09:38:00,
2013-02-10 03:44:00,20.8,19.8,30.11,SE,144,0.0,5.0,96,0.00,,,0.00,HR-IXPWINDi_r2_v1.2.,2013-02-10 09:44:00,
2013-02-10 03:49:00,20.8,19.8,30.10,SE,144,0.0,5.0,96,0.00,,,0.00,HR-IXPWINDi_r2_v1.2.,2013-02-10 09:49:00,
2013-02-10 03:54:00,20.7,19.8,30.11,SE,130,0.0,4.0,96,0.00,,,0.00,HR-IXPWINDi_r2_v1.2.,2013-02-10 09:54:00,
2013-02-10 03:59:00,20.7,19.8,30.10,SE,145,0.0,4.0,96,0.00,,,0.00,HR-IXPWINDi_r2_v1.2.,2013-02-10 09:59:00,
2013-02-10 04:05:00,20.7,19.8,30.10,SE,132,0.0,4.0,96,0.00,,,0.00,HR-IXPWINDi_r2_v1.2.,2013-02-10 10:05:00,
2013-02-10 04:10:00,20.7,19.8,30.10,SE,139,1.0,4.0,96,0.00,,,0.00,HR-IXPWINDi_r2_v1.2.,2013-02-10 10:10:00,
2013-02-10 04:15:00,20.7,19.8,30.10,SSE,161,4.0,4.0,96,0.00,,,0.00,HR-IXPWINDi_r2_v1.2.,2013-02-10 10:15:00,
2013-02-10 04:20:00,20.7,19.8,30.10,SSE,160,0.0,4.0,96,0.00,,,0.00,HR-IXPWINDi_r2_v1.2.,2013-02-10 10:20:00,
2013-02-10 04:25:00,20.7,19.8,30.10,SE,145,0.0,4.0,96,0.00,,,0.00,HR-IXPWINDi_r2_v1.2.,2013-02-10 10:25:00,
2013-02-10 04:31:00,20.7,19.8,30.09,SE,145,1.0,2.0,96,0.00,,,0.00,HR-IXPWINDi_r2_v1.2.,2013-02-10 10:31:00,
2013-02-10 04:36:00,20.7,19.5,30.09,ESE,115,4.0,4.0,95,0.00,,,0.00,HR-IXPWINDi_r2_v1.2.,2013-02-10 10:36:00,
2013-02-10 04:41:00,20.7,19.5,30.09,SE,124,1.0,4.0,95,0.00,,,0.00,HR-IXPWINDi_r2_v1.2.,2013-02-10 10:41:00,
2013-02-10 04:46:00,20.7,19.8,30.08,SE,126,2.0,4.0,96,0.00,,,0.00,HR-IXPWINDi_r2_v1.2.,2013-02-10 10:46:00,
2013-02-10 04:51:00,20.7,19.5,30.08,East,94,2.0,4.0,95,0.00,,,0.00,HR-IXPWINDi_r2_v1.2.,2013-02-10 10:51:00,
2013-02-10 04:56:00,20.7,19.8,30.07,ESE,110,1.0,5.0,96,0.00,,,0.00,HR-IXPWINDi_r2_v1.2.,2013-02-10 10:56:00,
2013-02-10 05:01:00,20.7,19.8,30.07,East,101,1.0,5.0,96,0.00,,,0.00,HR-IXPWINDi_r2_v1.2.,2013-02-10 11:01:00,
2013-02-10 05:06:00,20.8,19.8,30.06,ESE,110,2.0,4.0,96,0.00,,,0.00,HR-IXPWINDi_r2_v1.2.,2013-02-10 11:06:00,
2013-02-10 05:12:00,20.8,19.8,30.06,ESE,111,2.0,4.0,96,0.00,,,0.00,HR-IXPWINDi_r2_v1.2.,2013-02-10 11:12:00,
2013-02-10 05:17:00,20.8,19.8,30.06,ESE,111,0.0,4.0,96,0.00,,,0.00,HR-IXPWINDi_r2_v1.2.,2013-02-10 11:17:00,
2013-02-10 05:22:00,20.8,19.6,30.06,ESE,111,0.0,4.0,95,0.00,,,0.00,HR-IXPWINDi_r2_v1.2.,2013-02-10 11:22:00,
2013-02-10 05:27:00,20.9,19.9,30.06,ESE,110,0.0,1.0,96,0.00,,,0.00,HR-IXPWINDi_r2_v1.2.,2013-02-10 11:27:00,
2013-02-10 05:33:00,20.9,19.9,30.06,ESE,110,0.0,1.0,96,0.00,,,0.00,HR-IXPWINDi_r2_v1.2.,2013-02-10 11:33:00,
2013-02-10 05:38:00,20.9,19.9,30.06,ESE,111,2.0,2.0,96,0.00,,,0.00,HR-IXPWINDi_r2_v1.2.,2013-02-10 11:38:00,
2013-02-10 05:43:00,20.8,19.6,30.05,ESE,111,0.0,2.0,95,0.00,,,0.00,HR-IXPWINDi_r2_v1.2.,2013-02-10 11:43:00,
2013-02-10 05:48:00,20.9,19.9,30.05,ESE,110,0.0,2.0,96,0.00,,,0.00,HR-IXPWINDi_r2_v1.2.,2013-02-10 11:48:00,
2013-02-10 05:53:00,20.9,19.9,30.04,NNE,24,0.0,3.0,96,0.00,,,0.00,HR-IXPWINDi_r2_v1.2.,2013-02-10 11:53:00,
2013-02-10 05:58:00,20.9,19.7,30.04,East,85,0.0,3.0,95,0.00,,,0.00,HR-IXPWINDi_r2_v1.2.,2013-02-10 11:58:00,
2013-02-10 06:04:00,20.8,19.6,30.04,ENE,78,0.0,2.0,95,0.00,,,0.00,HR-IXPWINDi_r2_v1.2.,2013-02-10 12:04:00,
2013-02-10 06:09:00,20.8,19.6,30.04,East,99,2.0,4.0,95,0.00,,,0.00,HR-IXPWINDi_r2_v1.2.,2013-02-10 12:09:00,
2013-02-10 06:14:00,20.7,19.5,30.04,East,100,0.0,4.0,95,0.00,,,0.00,HR-IXPWINDi_r2_v1.2.,2013-02-10 12:14:00,
2013-02-10 06:19:00,20.7,19.8,30.05,ESE,112,1.0,4.0,96,0.00,,,0.00,HR-IXPWINDi_r2_v1.2.,2013-02-10 12:19:00,
2013-02-10 06:25:00,20.7,19.8,30.05,East,93,4.0,4.0,96,0.00,,,0.00,HR-IXPWINDi_r2_v1.2.,2013-02-10 12:25:00,
2013-02-10 06:30:00,20.8,19.8,30.04,East,81,1.0,4.0,96,0.00,,,0.00,HR-IXPWINDi_r2_v1.2.,2013-02-10 12:30:00,
2013-02-10 06:35:00,20.8,19.8,30.04,ESE,123,4.0,6.0,96,0.00,,,0.00,HR-IXPWINDi_r2_v1.2.,2013-02-10 12:35:00,
2013-02-10 06:40:00,20.8,19.8,30.04,ESE,118,5.0,7.0,96,0.00,,,0.00,HR-IXPWINDi_r2_v1.2.,2013-02-10 12:40:00,
2013-02-10 06:45:00,20.8,19.8,30.03,East,92,0.0,7.0,96,0.00,,,0.00,HR-IXPWINDi_r2_v1.2.,2013-02-10 12:45:00,
2013-02-10 06:51:00,20.8,19.8,30.03,SE,138,2.0,7.0,96,0.00,,,0.00,HR-IXPWINDi_r2_v1.2.,2013-02-10 12:51:00,
2013-02-10 06:56:00,20.8,19.8,30.03,ESE,117,0.0,4.0,96,0.00,,,0.00,HR-IXPWINDi_r2_v1.2.,2013-02-10 12:56:00,
2013-02-10 07:01:00,20.8,19.8,30.03,East,100,2.0,4.0,96,0.00,,,0.00,HR-IXPWINDi_r2_v1.2.,2013-02-10 13:01:00,
2013-02-10 07:06:00,20.9,19.9,30.02,ESE,106,0.0,6.0,96,0.00,,,0.00,HR-IXPWINDi_r2_v1.2.,2013-02-10 13:06:00,
2013-02-10 07:11:00,21.0,20.0,30.02,ESE,111,2.0,6.0,96,0.00,,,0.00,HR-IXPWINDi_r2_v1.2.,2013-02-10 13:11:00,
2013-02-10 07:16:00,21.0,20.0,30.02,ENE,57,0.0,7.0,96,0.00,,,0.00,HR-IXPWINDi_r2_v1.2.,2013-02-10 13:16:00,
2013-02-10 07:21:00,21.1,20.1,30.02,ENE,78,1.0,7.0,96,0.00,,,0.00,HR-IXPWINDi_r2_v1.2.,2013-02-10 13:21:00,
2013-02-10 07:26:00,21.1,20.1,30.01,NE,47,2.0,7.0,96,0.00,,,0.00,HR-IXPWINDi_r2_v1.2.,2013-02-10 13:26:00,
2013-02-10 07:32:00,21.1,20.1,30.01,ESE,106,4.0,7.0,96,0.00,,,0.00,HR-IXPWINDi_r2_v1.2.,2013-02-10 13:32:00,
2013-02-10 07:37:00,21.2,20.2,30.01,ENE,67,4.0,6.0,96,0.00,,,0.00,HR-IXPWINDi_r2_v1.2.,2013-02-10 13:37:00,
2013-02-10 07:42:00,21.3,20.3,30.01,East,80,3.0,8.0,96,0.00,,,0.00,HR-IXPWINDi_r2_v1.2.,2013-02-10 13:42:00,
2013-02-10 07:47:00,21.3,20.3,30.01,East,98,2.0,8.0,96,0.00,,,0.00,HR-IXPWINDi_r2_v1.2.,2013-02-10 13:47:00,
2013-02-10 07:52:00,21.4,20.4,30.00,East,95,2.0,8.0,96,0.00,,,0.00,HR-IXPWINDi_r2_v1.2.,2013-02-10 13:52:00,
2013-02-10 07:58:00,21.4,20.4,30.00,East,100,1.0,8.0,96,0.00,,,0.00,HR-IXPWINDi_r2_v1.2.,2013-02-10 13:58:00,
2013-02-10 08:03:00,21.5,20.5,29.98,NE,38,1.0,8.0,96,0.00,,,0.00,HR-IXPWINDi_r2_v1.2.,2013-02-10 14:03:00,
2013-02-10 08:08:00,21.6,20.6,29.97,ESE,105,1.0,7.0,96,0.00,,,0.00,HR-IXPWINDi_r2_v1.2.,2013-02-10 14:08:00,
2013-02-10 08:13:00,21.6,20.6,29.97,NE,54,5.0,5.0,96,0.00,,,0.00,HR-IXPWINDi_r2_v1.2.,2013-02-10 14:13:00,
2013-02-10 08:18:00,21.7,20.7,29.96,SE,128,1.0,11.0,96,0.00,,,0.00,HR-IXPWINDi_r2_v1.2.,2013-02-10 14:18:00,
2013-02-10 08:23:00,21.8,20.8,29.96,ESE,115,0.0,11.0,96,0.00,,,0.00,HR-IXPWINDi_r2_v1.2.,2013-02-10 14:23:00,
2013-02-10 08:28:00,22.0,21.0,29.96,ESE,107,1.0,9.0,96,0.00,,,0.00,HR-IXPWINDi_r2_v1.2.,2013-02-10 14:28:00,
2013-02-10 08:34:00,22.2,21.5,29.95,East,96,6.0,11.0,97,0.00,,,0.00,HR-IXPWINDi_r2_v1.2.,2013-02-10 14:34:00,
2013-02-10 08:39:00,22.4,21.7,29.95,East,90,6.0,11.0,97,0.00,,,0.00,HR-IXPWINDi_r2_v1.2.,2013-02-10 14:39:00,
2013-02-10 08:44:00,22.6,21.9,29.94,East,98,5.0,11.0,97,0.00,,,0.00,HR-IXPWINDi_r2_v1.2.,2013-02-10 14:44:00,
2013-02-10 08:49:00,22.7,22.0,29.94,East,80,4.0,11.0,97,0.00,,,0.00,HR-IXPWINDi_r2_v1.2.,2013-02-10 14:49:00,
2013-02-10 08:54:00,23.0,22.3,29.93,NE,55,3.0,11.0,97,0.00,,,0.00,HR-IXPWINDi_r2_v1.2.,2013-02-10 14:54:00,
2013-02-10 09:00:00,23.2,22.5,29.93,ENE,73,3.0,11.0,97,0.00,,,0.00,HR-IXPWINDi_r2_v1.2.,2013-02-10 15:00:00,
2013-02-10 09:05:00,23.4,22.7,29.93,East,97,5.0,11.0,97,0.00,,,0.00,HR-IXPWINDi_r2_v1.2.,2013-02-10 15:05:00,
2013-02-10 09:10:00,23.5,22.8,29.92,East,98,7.0,11.0,97,0.00,,,0.00,HR-IXPWINDi_r2_v1.2.,2013-02-10 15:10:00,
2013-02-10 09:15:00,23.6,22.9,29.92,ESE,119,2.0,13.0,97,0.00,,,0.00,HR-IXPWINDi_r2_v1.2.,2013-02-10 15:15:00,
2013-02-10 09:20:00,23.6,22.9,29.92,ESE,106,5.0,13.0,97,0.00,,,0.00,HR-IXPWINDi_r2_v1.2.,2013-02-10 15:20:00,
2013-02-10 09:26:00,23.7,23.0,29.92,ENE,71,1.0,9.0,97,0.00,,,0.00,HR-IXPWINDi_r2_v1.2.,2013-02-10 15:26:00,
2013-02-10 09:31:00,23.8,23.1,29.92,ESE,106,0.0,8.0,97,0.00,,,0.00,HR-IXPWINDi_r2_v1.2.,2013-02-10 15:31:00,
2013-02-10 09:36:00,23.9,23.2,29.93,ESE,105,4.0,6.0,97,0.00,,,0.00,HR-IXPWINDi_r2_v1.2.,2013-02-10 15:36:00,
2013-02-10 09:41:00,24.1,23.4,29.93,East,100,4.0,7.0,97,0.00,,,0.00,HR-IXPWINDi_r2_v1.2.,2013-02-10 15:41:00,
2013-02-10 09:46:00,24.2,23.5,29.94,East,92,4.0,9.0,97,0.00,,,0.00,HR-IXPWINDi_r2_v1.2.,2013-02-10 15:46:00,
2013-02-10 09:51:00,24.3,23.6,29.94,East,90,5.0,9.0,97,0.00,,,0.00,HR-IXPWINDi_r2_v1.2.,2013-02-10 15:51:00,
2013-02-10 09:56:00,24.4,23.7,29.94,ESE,120,2.0,7.0,97,0.00,,,0.00,HR-IXPWINDi_r2_v1.2.,2013-02-10 15:56:00,
2013-02-10 10:02:00,24.6,23.9,29.93,ESE,115,4.0,11.0,97,0.00,,,0.00,HR-IXPWINDi_r2_v1.2.,2013-02-10 16:02:00,
2013-02-10 10:07:00,24.7,24.0,29.94,SE,142,4.0,11.0,97,0.00,,,0.00,HR-IXPWINDi_r2_v1.2.,2013-02-10 16:07:00,
2013-02-10 10:12:00,24.8,24.1,29.94,ESE,116,6.0,11.0,97,0.00,,,0.00,HR-IXPWINDi_r2_v1.2.,2013-02-10 16:12:00,
2013-02-10 10:17:00,24.9,24.2,29.94,ESE,117,5.0,11.0,97,0.00,,,0.00,HR-IXPWINDi_r2_v1.2.,2013-02-10 16:17:00,
2013-02-10 10:22:00,25.0,24.3,29.94,ESE,111,1.0,11.0,97,0.00,,,0.00,HR-IXPWINDi_r2_v1.2.,2013-02-10 16:22:00,
2013-02-10 10:27:00,25.1,24.4,29.95,SSE,148,1.0,9.0,97,0.00,,,0.00,HR-IXPWINDi_r2_v1.2.,2013-02-10 16:27:00,
2013-02-10 10:33:00,25.3,24.6,29.95,SSE,161,0.0,10.0,97,0.00,,,0.00,HR-IXPWINDi_r2_v1.2.,2013-02-10 16:33:00,
2013-02-10 10:38:00,25.3,24.6,29.94,SSE,152,2.0,12.0,97,0.00,,,0.00,HR-IXPWINDi_r2_v1.2.,2013-02-10 16:38:00,
2013-02-10 10:43:00,25.4,24.7,29.95,ESE,113,8.0,12.0,97,0.00,,,0.00,HR-IXPWINDi_r2_v1.2.,2013-02-10 16:43:00,
2013-02-10 10:48:00,25.6,24.9,29.95,SSE,155,4.0,12.0,97,0.00,,,0.00,HR-IXPWINDi_r2_v1.2.,2013-02-10 16:48:00,
2013-02-10 10:53:00,25.7,25.0,29.94,ESE,109,7.0,11.0,97,0.00,,,0.00,HR-IXPWINDi_r2_v1.2.,2013-02-10 16:53:00,
2013-02-10 10:58:00,25.8,25.1,29.93,SSE,150,6.0,9.0,97,0.00,,,0.00,HR-IXPWINDi_r2_v1.2.,2013-02-10 16:58:00,
2013-02-10 11:03:00,25.9,25.2,29.93,SE,127,6.0,11.0,97,0.00,,,0.00,HR-IXPWINDi_r2_v1.2.,2013-02-10 17:03:00,
2013-02-10 11:08:00,26.0,25.3,29.92,East,98,11.0,11.0,97,0.00,,,0.00,HR-IXPWINDi_r2_v1.2.,2013-02-10 17:08:00,
2013-02-10 11:13:00,26.0,25.3,29.91,SE,128,2.0,11.0,97,0.00,,,0.00,HR-IXPWINDi_r2_v1.2.,2013-02-10 17:13:00,
2013-02-10 11:19:00,26.1,25.4,29.91,South,177,4.0,12.0,97,0.00,,,0.00,HR-IXPWINDi_r2_v1.2.,2013-02-10 17:19:00,
2013-02-10 11:24:00,26.1,25.4,29.91,SE,132,4.0,12.0,97,0.00,,,0.00,HR-IXPWINDi_r2_v1.2.,2013-02-10 17:24:00,
2013-02-10 11:29:00,26.2,25.7,29.90,SE,139,5.0,13.0,98,0.00,,,0.00,HR-IXPWINDi_r2_v1.2.,2013-02-10 17:29:00,
2013-02-10 11:34:00,26.2,25.7,29.89,SSE,148,2.0,13.0,98,0.00,,,0.00,HR-IXPWINDi_r2_v1.2.,2013-02-10 17:34:00,
2013-02-10 11:39:00,26.3,25.8,29.88,ESE,107,9.0,12.0,98,0.00,,,0.00,HR-IXPWINDi_r2_v1.2.,2013-02-10 17:39:00,
2013-02-10 11:45:00,26.3,25.6,29.87,ESE,110,6.0,12.0,97,0.00,,,0.00,HR-IXPWINDi_r2_v1.2.,2013-02-10 17:45:00,
2013-02-10 11:50:00,26.4,25.9,29.86,East,84,3.0,12.0,98,0.00,,,0.00,HR-IXPWINDi_r2_v1.2.,2013-02-10 17:50:00,
2013-02-10 11:55:00,26.5,26.0,29.86,SE,144,6.0,12.0,98,0.00,,,0.00,HR-IXPWINDi_r2_v1.2.,2013-02-10 17:55:00,
2013-02-10 12:00:00,26.6,26.1,29.85,ESE,103,4.0,13.0,98,0.00,,,0.00,HR-IXPWINDi_r2_v1.2.,2013-02-10 18:00:00,
2013-02-10 12:06:00,26.7,26.2,29.85,East,79,6.0,13.0,98,0.00,,,0.00,HR-IXPWINDi_r2_v1.2.,2013-02-10 18:06:00,
2013-02-10 12:11:00,26.7,26.2,29.84,ESE,120,6.0,13.0,98,0.00,,,0.00,HR-IXPWINDi_r2_v1.2.,2013-02-10 18:11:00,
2013-02-10 12:16:00,26.7,26.2,29.83,SE,137,5.0,13.0,98,0.00,,,0.00,HR-IXPWINDi_r2_v1.2.,2013-02-10 18:16:00,
2013-02-10 12:21:00,26.7,26.2,29.83,SE,133,7.0,14.0,98,0.00,,,0.00,HR-IXPWINDi_r2_v1.2.,2013-02-10 18:21:00,
2013-02-10 12:26:00,26.8,26.3,29.83,SE,126,6.0,14.0,98,0.00,,,0.00,HR-IXPWINDi_r2_v1.2.,2013-02-10 18:26:00,
2013-02-10 12:31:00,26.9,26.1,29.82,SE,136,7.0,14.0,97,0.00,,,0.00,HR-IXPWINDi_r2_v1.2.,2013-02-10 18:31:00,
2013-02-10 12:36:00,26.9,26.1,29.81,East,86,5.0,15.0,97,0.00,,,0.00,HR-IXPWINDi_r2_v1.2.,2013-02-10 18:36:00,
2013-02-10 12:42:00,26.9,26.1,29.81,NNE,15,8.0,16.0,97,0.00,,,0.00,HR-IXPWINDi_r2_v1.2.,2013-02-10 18:42:00,
2013-02-10 12:47:00,27.0,26.5,29.79,ENE,74,2.0,16.0,98,0.00,,,0.00,HR-IXPWINDi_r2_v1.2.,2013-02-10 18:47:00,
2013-02-10 12:52:00,27.0,26.5,29.79,SE,130,1.0,13.0,98,0.00,,,0.00,HR-IXPWINDi_r2_v1.2.,2013-02-10 18:52:00,
2013-02-10 12:57:00,27.1,26.6,29.77,ENE,74,1.0,13.0,98,0.00,,,0.00,HR-IXPWINDi_r2_v1.2.,2013-02-10 18:57:00,
2013-02-10 13:02:00,27.1,26.6,29.76,East,89,2.0,11.0,98,0.00,,,0.00,HR-IXPWINDi_r2_v1.2.,2013-02-10 19:02:00,
2013-02-10 13:07:00,27.1,26.6,29.76,ENE,59,5.0,14.0,98,0.00,,,0.00,HR-IXPWINDi_r2_v1.2.,2013-02-10 19:07:00,
2013-02-10 13:12:00,27.2,26.7,29.76,East,91,6.0,14.0,98,0.00,,,0.00,HR-IXPWINDi_r2_v1.2.,2013-02-10 19:12:00,
2013-02-10 13:17:00,27.2,26.7,29.75,SSE,159,8.0,15.0,98,0.00,,,0.00,HR-IXPWINDi_r2_v1.2.,2013-02-10 19:17:00,
2013-02-10 13:23:00,27.2,26.7,29.75,ESE,102,9.0,15.0,98,0.00,,,0.00,HR-IXPWINDi_r2_v1.2.,2013-02-10 19:23:00,
2013-02-10 13:28:00,27.3,26.5,29.74,ESE,103,12.0,16.0,97,0.00,,,0.00,HR-IXPWINDi_r2_v1.2.,2013-02-10 19:28:00,
2013-02-10 13:33:00,27.4,26.9,29.73,ESE,113,11.0,16.0,98,0.00,,,0.00,HR-IXPWINDi_r2_v1.2.,2013-02-10 19:33:00,
2013-02-10 13:38:00,27.5,27.0,29.73,ESE,104,5.0,18.0,98,0.00,,,0.00,HR-IXPWINDi_r2_v1.2.,2013-02-10 19:38:00,
2013-02-10 13:43:00,27.6,27.1,29.71,ESE,113,14.0,18.0,98,0.00,,,0.00,HR-IXPWINDi_r2_v1.2.,2013-02-10 19:43:00,
2013-02-10 13:48:00,27.7,27.2,29.71,ESE,121,6.0,16.0,98,0.00,,,0.00,HR-IXPWINDi_r2_v1.2.,2013-02-10 19:48:00,
2013-02-10 13:54:00,27.8,27.3,29.70,ENE,69,3.0,20.0,98,0.00,,,0.00,HR-IXPWINDi_r2_v1.2.,2013-02-10 19:54:00,
2013-02-10 13:59:00,27.9,27.4,29.69,East,96,2.0,20.0,98,0.00,,,0.00,HR-IXPWINDi_r2_v1.2.,2013-02-10 19:59:00,
2013-02-10 14:04:00,28.0,27.5,29.68,East,84,8.0,18.0,98,0.00,,,0.00,HR-IXPWINDi_r2_v1.2.,2013-02-10 20:04:00,
2013-02-10 14:09:00,28.1,27.6,29.67,East,90,7.0,20.0,98,0.00,,,0.00,HR-IXPWINDi_r2_v1.2.,2013-02-10 20:09:00,
2013-02-10 14:14:00,28.2,27.4,29.67,East,80,5.0,20.0,97,0.00,,,0.00,HR-IXPWINDi_r2_v1.2.,2013-02-10 20:14:00,
2013-02-10 14:20:00,28.4,27.9,29.67,ESE,115,8.0,21.0,98,0.00,,,0.00,HR-IXPWINDi_r2_v1.2.,2013-02-10 20:20:00,
2013-02-10 14:25:00,28.5,28.0,29.65,ENE,78,3.0,21.0,98,0.00,,,0.00,HR-IXPWINDi_r2_v1.2.,2013-02-10 20:25:00,
2013-02-10 14:30:00,28.7,28.2,29.65,East,86,2.0,19.0,98,0.00,,,0.00,HR-IXPWINDi_r2_v1.2.,2013-02-10 20:30:00,
2013-02-10 14:35:00,28.8,28.3,29.65,ESE,117,7.0,18.0,98,0.00,,,0.00,HR-IXPWINDi_r2_v1.2.,2013-02-10 20:35:00,
2013-02-10 14:40:00,29.0,28.2,29.64,ESE,103,18.0,18.0,97,0.00,,,0.00,HR-IXPWINDi_r2_v1.2.,2013-02-10 20:40:00,
2013-02-10 14:45:00,29.1,28.3,29.64,ESE,111,11.0,22.0,97,0.00,,,0.00,HR-IXPWINDi_r2_v1.2.,2013-02-10 20:45:00,
2013-02-10 14:50:00,29.2,28.4,29.63,ENE,64,11.0,22.0,97,0.00,,,0.00,HR-IXPWINDi_r2_v1.2.,2013-02-10 20:50:00,
2013-02-10 14:55:00,29.3,28.5,29.62,SSE,151,7.0,20.0,97,0.00,,,0.00,HR-IXPWINDi_r2_v1.2.,2013-02-10 20:55:00,
2013-02-10 15:01:00,29.4,28.6,29.61,ESE,102,7.0,22.0,97,0.00,,,0.00,HR-IXPWINDi_r2_v1.2.,2013-02-10 21:01:00,
2013-02-10 15:06:00,29.6,28.8,29.59,ESE,109,14.0,22.0,97,0.00,,,0.00,HR-IXPWINDi_r2_v1.2.,2013-02-10 21:06:00,
2013-02-10 15:11:00,29.7,28.9,29.59,SE,130,8.0,23.0,97,0.00,,,0.00,HR-IXPWINDi_r2_v1.2.,2013-02-10 21:11:00,
2013-02-10 15:16:00,29.8,29.0,29.59,SE,132,6.0,23.0,97,0.00,,,0.00,HR-IXPWINDi_r2_v1.2.,2013-02-10 21:16:00,
2013-02-10 15:21:00,29.9,29.1,29.59,East,94,11.0,18.0,97,0.00,,,0.00,HR-IXPWINDi_r2_v1.2.,2013-02-10 21:21:00,
2013-02-10 15:27:00,30.0,29.2,29.59,ENE,72,4.0,18.0,97,0.00,,,0.00,HR-IXPWINDi_r2_v1.2.,2013-02-10 21:27:00,
2013-02-10 15:32:00,30.1,29.3,29.60,East,98,7.0,16.0,97,0.00,,,0.00,HR-IXPWINDi_r2_v1.2.,2013-02-10 21:32:00,
2013-02-10 15:37:00,30.2,29.4,29.60,East,98,1.0,19.0,97,0.00,,,0.00,HR-IXPWINDi_r2_v1.2.,2013-02-10 21:37:00,
2013-02-10 15:42:00,30.5,29.7,29.59,East,95,6.0,19.0,97,0.00,,,0.00,HR-IXPWINDi_r2_v1.2.,2013-02-10 21:42:00,
2013-02-10 15:48:00,30.5,29.7,29.59,ESE,111,7.0,16.0,97,0.00,,,0.00,HR-IXPWINDi_r2_v1.2.,2013-02-10 21:48:00,
2013-02-10 15:53:00,30.5,29.7,29.59,ESE,112,5.0,16.0,97,0.00,,,0.00,HR-IXPWINDi_r2_v1.2.,2013-02-10 21:53:00,
2013-02-10 15:58:00,30.5,29.7,29.59,ENE,77,2.0,15.0,97,0.00,,,0.00,HR-IXPWINDi_r2_v1.2.,2013-02-10 21:58:00,
2013-02-10 16:03:00,30.4,29.6,29.58,ESE,104,11.0,15.0,97,0.00,,,0.00,HR-IXPWINDi_r2_v1.2.,2013-02-10 22:03:00,
2013-02-10 16:08:00,30.3,29.5,29.58,ENE,78,10.0,13.0,97,0.00,,,0.00,HR-IXPWINDi_r2_v1.2.,2013-02-10 22:08:00,
2013-02-10 16:13:00,30.2,29.4,29.58,SE,144,8.0,13.0,97,0.00,,,0.00,HR-IXPWINDi_r2_v1.2.,2013-02-10 22:13:00,
2013-02-10 16:18:00,30.2,29.4,29.58,SE,146,7.0,13.0,97,0.00,,,0.00,HR-IXPWINDi_r2_v1.2.,2013-02-10 22:18:00,
2013-02-10 16:23:00,30.1,29.3,29.58,SE,142,5.0,12.0,97,0.00,,,0.00,HR-IXPWINDi_r2_v1.2.,2013-02-10 22:23:00,
2013-02-10 16:29:00,30.0,29.2,29.57,East,94,7.0,13.0,97,0.00,,,0.00,HR-IXPWINDi_r2_v1.2.,2013-02-10 22:29:00,
2013-02-10 16:34:00,29.9,29.1,29.57,ESE,110,8.0,14.0,97,0.00,,,0.00,HR-IXPWINDi_r2_v1.2.,2013-02-10 22:34:00,
2013-02-10 16:39:00,29.8,29.0,29.58,SE,126,13.0,16.0,97,0.00,,,0.00,HR-IXPWINDi_r2_v1.2.,2013-02-10 22:39:00,
2013-02-10 16:44:00,29.8,29.0,29.57,ENE,74,4.0,16.0,97,0.00,,,0.00,HR-IXPWINDi_r2_v1.2.,2013-02-10 22:44:00,
2013-02-10 16:49:00,29.7,28.9,29.57,SSE,156,6.0,16.0,97,0.00,,,0.00,HR-IXPWINDi_r2_v1.2.,2013-02-10 22:49:00,
2013-02-10 16:54:00,29.7,28.9,29.57,ESE,115,14.0,22.0,97,0.00,,,0.00,HR-IXPWINDi_r2_v1.2.,2013-02-10 22:54:00,
2013-02-10 16:59:00,29.6,28.8,29.57,SE,131,4.0,22.0,97,0.00,,,0.00,HR-IXPWINDi_r2_v1.2.,2013-02-10 22:59:00,
2013-02-10 17:04:00,29.6,28.8,29.57,East,91,6.0,22.0,97,0.00,,,0.00,HR-IXPWINDi_r2_v1.2.,2013-02-10 23:04:00,
2013-02-10 17:09:00,29.5,28.7,29.57,SE,128,7.0,11.0,97,0.00,,,0.00,HR-IXPWINDi_r2_v1.2.,2013-02-10 23:09:00,
2013-02-10 17:15:00,29.5,28.7,29.57,ENE,67,4.0,9.0,97,0.00,,,0.00,HR-IXPWINDi_r2_v1.2.,2013-02-10 23:15:00,
2013-02-10 17:20:00,29.4,28.6,29.57,South,171,7.0,9.0,97,0.00,,,0.00,HR-IXPWINDi_r2_v1.2.,2013-02-10 23:20:00,
2013-02-10 17:25:00,29.4,28.6,29.57,SE,143,7.0,9.0,97,0.00,,,0.00,HR-IXPWINDi_r2_v1.2.,2013-02-10 23:25:00,
2013-02-10 17:30:00,29.4,28.6,29.56,SE,137,1.0,9.0,97,0.00,,,0.00,HR-IXPWINDi_r2_v1.2.,2013-02-10 23:30:00,
2013-02-10 17:35:00,29.3,28.5,29.56,SE,134,2.0,8.0,97,0.00,,,0.00,HR-IXPWINDi_r2_v1.2.,2013-02-10 23:35:00,
2013-02-10 17:40:00,29.3,28.8,29.56,SE,134,6.0,9.0,98,0.00,,,0.00,HR-IXPWINDi_r2_v1.2.,2013-02-10 23:40:00,
2013-02-10 17:45:00,29.2,28.7,29.55,SE,144,2.0,11.0,98,0.00,,,0.00,HR-IXPWINDi_r2_v1.2.,2013-02-10 23:45:00,
2013-02-10 17:50:00,29.2,28.7,29.55,ESE,113,6.0,11.0,98,0.00,,,0.00,HR-IXPWINDi_r2_v1.2.,2013-02-10 23:50:00,
2013-02-10 17:56:00,29.3,28.8,29.56,ESE,121,8.0,12.0,98,0.00,,,0.00,HR-IXPWINDi_r2_v1.2.,2013-02-10 23:56:00,
2013-02-10 18:01:00,29.3,28.8,29.55,ESE,104,4.0,12.0,98,0.00,,,0.00,HR-IXPWINDi_r2_v1.2.,2013-02-11 00:01:00,
2013-02-10 18:05:00,29.3,28.8,29.55,ESE,107,5.0,12.0,98,0.00,,,0.00,HR-IXPWINDi_r2_v1.2.,2013-02-11 00:05:00,
2013-02-10 18:11:00,29.3,28.8,29.54,ESE,122,6.0,12.0,98,0.00,,,0.00,HR-IXPWINDi_r2_v1.2.,2013-02-11 00:11:00,
2013-02-10 18:16:00,29.3,28.8,29.54,East,86,4.0,8.0,98,0.00,,,0.00,HR-IXPWINDi_r2_v1.2.,2013-02-11 00:16:00,
2013-02-10 18:21:00,29.3,28.8,29.54,ENE,63,2.0,9.0,98,0.00,,,0.00,HR-IXPWINDi_r2_v1.2.,2013-02-11 00:21:00,
2013-02-10 18:27:00,29.4,28.9,29.54,SE,131,5.0,9.0,98,0.00,,,0.00,HR-IXPWINDi_r2_v1.2.,2013-02-11 00:27:00,
2013-02-10 18:32:00,29.4,28.9,29.53,ENE,65,0.0,8.0,98,0.00,,,0.00,HR-IXPWINDi_r2_v1.2.,2013-02-11 00:32:00,
2013-02-10 18:37:00,29.3,28.8,29.53,ESE,106,2.0,7.0,98,0.00,,,0.00,HR-IXPWINDi_r2_v1.2.,2013-02-11 00:37:00,
2013-02-10 18:42:00,29.4,28.9,29.53,SE,124,4.0,9.0,98,0.00,,,0.00,HR-IXPWINDi_r2_v1.2.,2013-02-11 00:42:00,
2013-02-10 18:47:00,29.4,28.9,29.53,ESE,119,4.0,9.0,98,0.00,,,0.00,HR-IXPWINDi_r2_v1.2.,2013-02-11 00:47:00,
2013-02-10 18:52:00,29.5,29.0,29.52,East,99,2.0,6.0,98,0.00,,,0.00,HR-IXPWINDi_r2_v1.2.,2013-02-11 00:52:00,
2013-02-10 18:57:00,29.5,29.0,29.52,NE,35,6.0,8.0,98,0.00,,,0.00,HR-IXPWINDi_r2_v1.2.,2013-02-11 00:57:00,
2013-02-10 19:02:00,29.6,29.1,29.51,SE,128,2.0,8.0,98,0.00,,,0.00,HR-IXPWINDi_r2_v1.2.,2013-02-11 01:02:00,
2013-02-10 19:08:00,29.6,29.1,29.51,East,96,1.0,8.0,98,0.00,,,0.00,HR-IXPWINDi_r2_v1.2.,2013-02-11 01:08:00,
2013-02-10 19:13:00,29.7,29.2,29.51,SE,142,0.0,8.0,98,0.00,,,0.00,HR-IXPWINDi_r2_v1.2.,2013-02-11 01:13:00,
2013-02-10 19:18:00,29.7,29.2,29.50,SE,143,9.0,11.0,98,0.00,,,0.00,HR-IXPWINDi_r2_v1.2.,2013-02-11 01:18:00,
2013-02-10 19:23:00,29.8,29.3,29.50,ESE,113,5.0,11.0,98,0.00,,,0.00,HR-IXPWINDi_r2_v1.2.,2013-02-11 01:23:00,
2013-02-10 19:28:00,29.9,29.4,29.50,East,80,2.0,11.0,98,0.00,,,0.00,HR-IXPWINDi_r2_v1.2.,2013-02-11 01:28:00,
2013-02-10 19:33:00,29.9,29.4,29.48,East,94,0.0,8.0,98,0.00,,,0.00,HR-IXPWINDi_r2_v1.2.,2013-02-11 01:33:00,
2013-02-10 19:38:00,29.9,29.4,29.48,East,84,4.0,7.0,98,0.00,,,0.00,HR-IXPWINDi_r2_v1.2.,2013-02-11 01:38:00,
2013-02-10 19:43:00,30.0,29.5,29.48,ESE,116,1.0,6.0,98,0.00,,,0.00,HR-IXPWINDi_r2_v1.2.,2013-02-11 01:43:00,
2013-02-10 19:49:00,30.1,29.6,29.49,SSE,152,4.0,11.0,98,0.00,,,0.00,HR-IXPWINDi_r2_v1.2.,2013-02-11 01:49:00,
2013-02-10 19:54:00,30.2,29.7,29.48,East,95,2.0,11.0,98,0.00,,,0.00,HR-IXPWINDi_r2_v1.2.,2013-02-11 01:54:00,
2013-02-10 19:59:00,30.2,29.7,29.48,SE,144,1.0,8.0,98,0.00,,,0.00,HR-IXPWINDi_r2_v1.2.,2013-02-11 01:59:00,
2013-02-10 20:04:00,30.3,29.8,29.48,SE,136,0.0,6.0,98,0.00,,,0.00,HR-IXPWINDi_r2_v1.2.,2013-02-11 02:04:00,
2013-02-10 20:09:00,30.4,29.9,29.47,East,84,4.0,6.0,98,0.00,,,0.00,HR-IXPWINDi_r2_v1.2.,2013-02-11 02:09:00,
2013-02-10 20:14:00,30.5,30.0,29.47,ESE,115,2.0,6.0,98,0.00,,,0.00,HR-IXPWINDi_r2_v1.2.,2013-02-11 02:14:00,
2013-02-10 20:20:00,30.6,30.1,29.46,SSE,156,2.0,8.0,98,0.00,,,0.00,HR-IXPWINDi_r2_v1.2.,2013-02-11 02:20:00,
2013-02-10 20:25:00,30.6,30.1,29.46,ESE,102,0.0,8.0,98,0.00,,,0.00,HR-IXPWINDi_r2_v1.2.,2013-02-11 02:25:00,
2013-02-10 20:30:00,30.7,30.2,29.46,East,96,1.0,8.0,98,0.00,,,0.00,HR-IXPWINDi_r2_v1.2.,2013-02-11 02:30:00,
2013-02-10 20:35:00,30.8,30.3,29.45,SE,135,0.0,8.0,98,0.00,,,0.00,HR-IXPWINDi_r2_v1.2.,2013-02-11 02:35:00,
2013-02-10 20:40:00,30.8,30.3,29.45,East,86,2.0,5.0,98,0.00,,,0.00,HR-IXPWINDi_r2_v1.2.,2013-02-11 02:40:00,
2013-02-10 20:45:00,30.9,30.4,29.45,SE,127,2.0,5.0,98,0.00,,,0.00,HR-IXPWINDi_r2_v1.2.,2013-02-11 02:45:00,
2013-02-10 20:51:00,31.0,30.5,29.44,ENE,74,2.0,6.0,98,0.00,,,0.00,HR-IXPWINDi_r2_v1.2.,2013-02-11 02:51:00,
2013-02-10 20:56:00,31.1,30.8,29.44,NE,54,2.0,6.0,99,0.00,,,0.00,HR-IXPWINDi_r2_v1.2.,2013-02-11 02:56:00,
2013-02-10 21:01:00,31.1,30.8,29.44,ESE,104,5.0,6.0,99,0.00,,,0.00,HR-IXPWINDi_r2_v1.2.,2013-02-11 03:01:00,
2013-02-10 21:06:00,31.1,30.6,29.44,ESE,103,2.0,6.0,98,0.00,,,0.00,HR-IXPWINDi_r2_v1.2.,2013-02-11 03:06:00,
2013-02-10 21:11:00,31.1,30.6,29.44,ESE,115,2.0,6.0,98,0.00,,,0.00,HR-IXPWINDi_r2_v1.2.,2013-02-11 03:11:00,
2013-02-10 21:17:00,31.2,30.7,29.43,ENE,74,1.0,5.0,98,0.00,,,0.00,HR-IXPWINDi_r2_v1.2.,2013-02-11 03:17:00,
2013-02-10 21:22:00,31.2,30.7,29.43,East,83,1.0,5.0,98,0.00,,,0.00,HR-IXPWINDi_r2_v1.2.,2013-02-11 03:22:00,
2013-02-10 21:27:00,31.2,30.7,29.43,NE,37,2.0,4.0,98,0.00,,,0.00,HR-IXPWINDi_r2_v1.2.,2013-02-11 03:27:00,
2013-02-10 21:32:00,31.2,30.9,29.43,ENE,61,1.0,5.0,99,0.00,,,0.00,HR-IXPWINDi_r2_v1.2.,2013-02-11 03:32:00,
2013-02-10 21:37:00,31.3,31.0,29.42,ESE,112,4.0,6.0,99,0.00,,,0.00,HR-IXPWINDi_r2_v1.2.,2013-02-11 03:37:00,
2013-02-10 21:42:00,31.4,31.1,29.42,ESE,106,1.0,6.0,99,0.00,,,0.00,HR-IXPWINDi_r2_v1.2.,2013-02-11 03:42:00,
2013-02-10 21:47:00,31.4,31.1,29.41,SE,129,0.0,5.0,99,0.00,,,0.00,HR-IXPWINDi_r2_v1.2.,2013-02-11 03:47:00,
2013-02-10 21:53:00,31.4,31.1,29.41,North,355,0.0,5.0,99,0.00,,,0.00,HR-IXPWINDi_r2_v1.2.,2013-02-11 03:53:00,
2013-02-10 21:58:00,31.5,31.2,29.41,ESE,105,4.0,5.0,99,0.00,,,0.00,HR-IXPWINDi_r2_v1.2.,2013-02-11 03:58:00,
2013-02-10 22:03:00,31.6,31.3,29.41,ESE,103,2.0,5.0,99,0.00,,,0.00,HR-IXPWINDi_r2_v1.2.,2013-02-11 04:03:00,
2013-02-10 22:08:00,31.7,31.4,29.40,SE,142,4.0,5.0,99,0.00,,,0.00,HR-IXPWINDi_r2_v1.2.,2013-02-11 04:08:00,
2013-02-10 22:14:00,31.7,31.4,29.41,East,92,0.0,5.0,99,0.00,,,0.00,HR-IXPWINDi_r2_v1.2.,2013-02-11 04:14:00,
2013-02-10 22:19:00,31.7,31.4,29.40,ESE,119,0.0,6.0,99,0.00,,,0.00,HR-IXPWINDi_r2_v1.2.,2013-02-11 04:19:00,
2013-02-10 22:24:00,31.7,31.4,29.40,ESE,118,0.0,6.0,99,0.00,,,0.00,HR-IXPWINDi_r2_v1.2.,2013-02-11 04:24:00,
2013-02-10 22:29:00,31.7,31.4,29.40,NW,315,0.0,2.0,99,0.00,,,0.00,HR-IXPWINDi_r2_v1.2.,2013-02-11 04:29:00,
2013-02-10 22:35:00,31.7,31.4,29.39,NNE,17,0.0,2.0,99,0.00,,,0.00,HR-IXPWINDi_r2_v1.2.,2013-02-11 04:35:00,
2013-02-10 22:40:00,31.9,31.6,29.39,NNE,17,0.0,2.0,99,0.00,,,0.00,HR-IXPWINDi_r2_v1.2.,2013-02-11 04:40:00,
2013-02-10 22:45:00,31.9,31.6,29.39,East,81,1.0,3.0,99,0.00,,,0.00,HR-IXPWINDi_r2_v1.2.,2013-02-11 04:45:00,
2013-02-10 22:50:00,31.8,31.5,29.39,East,81,0.0,3.0,99,0.00,,,0.00,HR-IXPWINDi_r2_v1.2.,2013-02-11 04:50:00,
2013-02-10 22:56:00,31.8,31.5,29.39,East,81,1.0,2.0,99,0.00,,,0.00,HR-IXPWINDi_r2_v1.2.,2013-02-11 04:56:00,
2013-02-10 23:00:00,31.8,31.5,29.39,ENE,64,0.0,2.0,99,0.00,,,0.00,HR-IXPWINDi_r2_v1.2.,2013-02-11 05:00:00,
2013-02-10 23:05:00,31.9,31.6,29.39,ENE,65,0.0,2.0,99,0.00,,,0.00,HR-IXPWINDi_r2_v1.2.,2013-02-11 05:05:00,
2013-02-10 23:10:00,31.9,31.6,29.39,ENE,65,0.0,2.0,99,0.00,,,0.00,HR-IXPWINDi_r2_v1.2.,2013-02-11 05:10:00,
2013-02-10 23:15:00,31.9,31.6,29.38,ENE,65,0.0,2.0,99,0.00,,,0.00,HR-IXPWINDi_r2_v1.2.,2013-02-11 05:15:00,
2013-02-10 23:20:00,31.9,31.6,29.38,ENE,65,0.0,2.0,99,0.00,,,0.00,HR-IXPWINDi_r2_v1.2.,2013-02-11 05:20:00,
2013-02-10 23:26:00,31.9,31.6,29.37,ENE,64,0.0,2.0,99,0.00,,,0.00,HR-IXPWINDi_r2_v1.2.,2013-02-11 05:26:00,
2013-02-10 23:31:00,31.9,31.6,29.37,ENE,65,1.0,2.0,99,0.00,,,0.00,HR-IXPWINDi_r2_v1.2.,2013-02-11 05:31:00,
2013-02-10 23:36:00,32.0,31.7,29.37,ENE,65,0.0,2.0,99,0.00,,,0.00,HR-IXPWINDi_r2_v1.2.,2013-02-11 05:36:00,
2013-02-10 23:41:00,32.0,31.7,29.36,ENE,65,0.0,2.0,99,0.00,,,0.00,HR-IXPWINDi_r2_v1.2.,2013-02-11 05:41:00,
2013-02-10 23:46:00,32.0,31.7,29.36,ENE,71,0.0,3.0,99,0.00,,,0.00,HR-IXPWINDi_r2_v1.2.,2013-02-11 05:46:00,
2013-02-10 23:52:00,32.0,31.7,29.36,ENE,71,0.0,3.0,99,0.00,,,0.00,HR-IXPWINDi_r2_v1.2.,2013-02-11 05:52:00,
2013-02-10 23:57:00,32.1,31.8,29.36,East,87,2.0,2.0,99,0.00,,,0.00,HR-IXPWINDi_r2_v1.2.,2013-02-11 05:57:00,